Regional Weather Roundup
Issued by NWS Cleveland, OH

Home | Current Version | Previous Version | Text Only | Print | Product List | Glossary Off
Versions: 1 2 3 4 5 6 7 8 9 10 11 12 13 14 15 16 17 18 19 20 21 22 23 24 25 26 27 28 29 30 31 32 33 34 35 36 37 38 39 40 41 42 43 44 45 46 47 48 49 50

000
ASUS41 KCLE 272210
RWRCLE
OHIO REGIONAL WEATHER ROUNDUP
NATIONAL WEATHER SERVICE WILMINGTON, OH
500 PM EST THU NOV 27 2014

NOTE: "FAIR" INDICATES FEW OR NO CLOUDS BELOW 12,000 FEET WITH NO
SIGNIFICANT WEATHER AND/OR OBSTRUCTIONS TO VISIBILITY.

OHZ001>008-015>018-024>027-034-035-043-044-272300-
   NORTHWEST OHIO

CITY           SKY/WX    TMP DP  RH WIND       PRES   REMARKS
DEFIANCE       CLOUDY    31  27  85 W9        30.24R WCI  23
FINDLAY        LGT SNOW  33  27  78 W16       30.21R WCI  23
TOLEDO EXPRESS MOCLDY    32  26  78 W12       30.20R WCI  23
TOLEDO METCALF LGT SNOW  32  26  78 W8        30.21R WCI  25
LIMA           LGT SNOW  31  26  82 W15       30.24R WCI  20
$$

OHZ009>014-019>023-028>033-038-089-272300-
   NORTHEAST OHIO

CITY           SKY/WX    TMP DP  RH WIND       PRES   REMARKS
CLE-HOPKINS    LGT SNOW  30  26  85 SW9       30.20S FOG     WCI  22
CLE-LAKEFRONT  LGT SNOW  33  27  78 W23       30.17R WCI  21
CUY CO. ARPT   SNOWSHWR  34  28  80 NW14G25   30.16R WCI  24
LORAIN-ELYRIA  LGT SNOW  31  25  78 W9        30.19S WCI  23
ASHTABULA      LGT SNOW  30  25  81 NW9       30.14R WCI  22
AKRON-CANTON   LGT SNOW  30  22  72 NW8       30.16R FOG     WCI  22
WOOSTER        LGT SNOW  29  25  85 W15       30.19R FOG     WCI  18
MANSFIELD      LGT SNOW  30  23  75 W13G18    30.18R WCI  20
YOUNGSTOWN     FLURRIES  29  22  75 W9G18     30.13R WCI  20
$$

OHZ042-051>053-060>062-070>072-077>081-272300-
  SOUTHWEST OHIO

CITY           SKY/WX    TMP DP  RH WIND       PRES   REMARKS
CINC-COVINGTON CLOUDY    31  21  66 W14       30.32R WCI  21
CINC-LUNKEN    CLOUDY    32  23  69 W12       30.35R WCI  23
HAMILTON       CLOUDY    32  24  72 W9        30.33R WCI  24
DAYTON         CLOUDY    31  22  69 NW13      30.29R WCI  21
WRIGHT-PAT AFB CLOUDY    31  23  72 W15G22    30.28R WCI  20
DAYTON GENERAL CLOUDY    31  22  69 NW15G22   30.28R WCI  20
WILMINGTON     LGT SNOW  30  23  75 W13       30.28R WCI  20
$$

OHZ036-037-039>041-045>050-054>059-063>069-073>076-082>088-272300-
  CENTRAL AND SOUTHEAST OHIO

CITY           SKY/WX    TMP DP  RH WIND       PRES   REMARKS
COLUMBUS       CLOUDY    32  21  64 W12       30.24R WCI  23
OSU AIRPORT    FLURRIES  32  23  69 W9        30.24R WCI  24
BOLTON FIELD   CLOUDY    32  25  74 S9        30.25R WCI  24
RICKENBACK AFB CLOUDY    32  22  68 W13       30.25R WCI  22
NEWARK         CLOUDY    32  21  64 W10       30.23R WCI  24
MARION         CLOUDY    31  24  75 W10       30.22R WCI  22
LANCASTER      CLOUDY    33  22  63 W9G18     30.25R WCI  25
ZANESVILLE     CLOUDY    30  20  66 W8        30.22R WCI  22
NEW PHILLY     LGT SNOW  32  24  72 W6        30.20R WCI  26
$$



USA.gov is the U.S. government's official web portal to all federal, state and local government web resources and services.